User: anonymous   Login
Location: Newark
(22.3060°N, 114.2134°E)
Time: 13:13:32
(UTC+00:00)
Language:

deb Explorer IX - Orbit

View from above orbital plane
View from above orbital plane
View from above satellite
View from above satellite

Ground track
Ground track

The orbit data is extracted from the following two-line orbital elements,

1    85U 61004C   21215.95462737  .00004063  00000-0  87828-3 0  9997
2    85  38.7676  74.3902 0381626  10.3394 350.4938 14.22011900989786
Epoch (UTC): 03 August 2021 22:54:39
Eccentricity: 0.0381626
inclination: 38.7676°
perigee height: 544 km
apogee height: 1093 km
right ascension of ascending node: 74.3902°
argument of perigee: 10.3394°
revolutions per day: 14.22011900
mean anomaly at epoch: 350.4938°
orbit number at epoch: 98978

The dashed part of the orbit path shows where the satellite is in the earth's shadow,  

DLR